Hilton Head Island, SC

4:43 PM EDT on May 29, 2017 (GMT -0400)
Hilton Head

Weather History for KHXD - July, 2013

Change the Weather History Date:

Friday, July 19, 2013

  Actual Average Record
Temperature  
Mean Temperature 80 °F -  
Max Temperature 84 °F 88 °F 95 °F (1954)
Min Temperature 75 °F 71 °F 59 °F (1963)
Cooling Degree Days 14    
Growing Degree Days 30 (Base 50)    
Moisture  
Dew Point 73 °F    
Average Humidity 80    
Maximum Humidity 94    
Minimum Humidity 62    
Precipitation  
Precipitation 0.00 in - - ()
Sea Level Pressure  
Sea Level Pressure 30.10 in    
Wind  
Wind Speed 4 mph (SSE)    
Max Wind Speed 12 mph    
Max Gust Speed 21 mph    
Visibility 10 miles    
Events Rain    
Averages and records for this station are not official NWS values.
T = Trace of Precipitation, MM = Missing Value Source: NWS Daily Summary

Daily Weather History Graph

Daily Weather History Graph

Search for Another Location

Airport or City:

Trip Planner

Search our weather history database for the weather conditions in past years. The results will help you decide how hot, cold, wet, or windy it might be!

Date:

Astronomy

Jul. 19, 2013 Rise Set
Actual Time 6:29 AM EDT 8:28 PM EDT
Civil Twilight 6:01 AM EDT 8:55 PM EDT
Nautical Twilight 5:28 AM EDT 9:29 PM EDT
Astronomical Twilight 4:52 AM EDT 10:04 PM EDT
Moon 5:29 PM EDT (7/19) 3:08 AM EDT (7/19)
Length of Visible Light 14h 53m
Length of Day
13h 59m
Waxing Gibbous, 86% of the Moon is Illuminated
Jul 19
Waxing Gibbous
Jul 22
Full
Jul 29
Last Quarter
Aug 6
New
Aug 14
First Quarter

Hourly Weather History & Observations

Time (EDT) Temp. Heat Index Dew Point Humidity Pressure Visibility Wind Dir Wind Speed Gust Speed Precip Events Conditions
12:15 AM 78.8 °F - 73.4 °F 83% 30.14 in 10.0 mi Calm Calm - 0.00 in   Clear
12:35 AM 78.8 °F - 73.4 °F 83% 30.14 in 10.0 mi ESE 3.5 mph - 0.00 in   Clear
12:55 AM 78.8 °F - 73.4 °F 83% 30.13 in 10.0 mi ESE 3.5 mph - 0.00 in   Clear
1:15 AM 78.8 °F - 73.4 °F 83% 30.13 in 10.0 mi Calm Calm - 0.00 in   Clear
1:35 AM 80.6 °F 85.4 °F 73.4 °F 79% 30.13 in 10.0 mi ESE 3.5 mph - 0.00 in   Clear
1:55 AM 80.6 °F 85.4 °F 73.4 °F 79% 30.12 in 10.0 mi SE 3.5 mph - 0.00 in   Partly Cloudy
2:15 AM 80.6 °F 85.4 °F 73.4 °F 79% 30.11 in 10.0 mi Calm Calm - 0.00 in   Partly Cloudy
2:35 AM 80.6 °F 85.4 °F 73.4 °F 79% 30.11 in 10.0 mi SE 3.5 mph - 0.00 in   Scattered Clouds
2:55 AM 80.6 °F 85.4 °F 73.4 °F 79% 30.11 in 10.0 mi SSE 3.5 mph - 0.00 in   Mostly Cloudy
3:15 AM 80.6 °F 85.4 °F 73.4 °F 79% 30.11 in 10.0 mi SSE 3.5 mph - 0.00 in   Scattered Clouds
3:35 AM 80.6 °F 85.4 °F 73.4 °F 79% 30.10 in 10.0 mi SE 4.6 mph - 0.00 in   Mostly Cloudy
3:55 AM 80.6 °F 85.4 °F 73.4 °F 79% 30.10 in 10.0 mi SE 3.5 mph - 0.00 in   Partly Cloudy
4:15 AM 80.6 °F 85.4 °F 73.4 °F 79% 30.10 in 10.0 mi SE 4.6 mph - 0.00 in   Scattered Clouds
4:35 AM 80.6 °F 85.4 °F 73.4 °F 79% 30.10 in 10.0 mi SE 4.6 mph - 0.00 in   Scattered Clouds
4:55 AM 80.6 °F 85.4 °F 73.4 °F 79% 30.10 in 10.0 mi SE 3.5 mph - 0.00 in   Scattered Clouds
5:15 AM 80.6 °F 85.4 °F 73.4 °F 79% 30.10 in 10.0 mi SE 3.5 mph - 0.00 in   Scattered Clouds
5:35 AM 78.8 °F - 73.4 °F 83% 30.10 in 10.0 mi South 4.6 mph - 0.00 in   Scattered Clouds
5:55 AM 78.8 °F - 73.4 °F 83% 30.10 in 10.0 mi Calm Calm - 0.00 in   Partly Cloudy
6:15 AM 78.8 °F - 73.4 °F 83% 30.10 in 10.0 mi Calm Calm - 0.00 in   Partly Cloudy
6:35 AM 78.8 °F - 73.4 °F 83% 30.10 in 10.0 mi ESE 3.5 mph - 0.00 in   Scattered Clouds
6:50 AM 80.6 °F 85.4 °F 73.4 °F 79% 30.11 in 10.0 mi Calm Calm - N/A   Scattered Clouds
7:50 AM 78.8 °F - 69.8 °F 74% 30.11 in 10.0 mi Calm Calm - N/A Rain Light Rain
8:50 AM 78.8 °F - 73.4 °F 83% 30.13 in 10.0 mi Calm Calm - N/A   Scattered Clouds
9:50 AM 80.6 °F 84.6 °F 71.6 °F 74% 30.13 in 10.0 mi Calm Calm - N/A   Scattered Clouds
10:50 AM 82.4 °F 87.2 °F 71.6 °F 70% 30.14 in 10.0 mi South 6.9 mph 13.8 mph N/A   Mostly Cloudy
11:50 AM 82.4 °F 87.2 °F 71.6 °F 70% 30.13 in 10.0 mi South 8.1 mph 16.1 mph N/A   Scattered Clouds
12:50 PM 82.4 °F 86.3 °F 69.8 °F 66% 30.12 in 10.0 mi South 8.1 mph 17.3 mph N/A   Scattered Clouds
1:50 PM 84.2 °F 89.6 °F 71.6 °F 66% 30.10 in 10.0 mi South 9.2 mph 16.1 mph N/A   Scattered Clouds
2:50 PM 84.2 °F 89.6 °F 71.6 °F 66% 30.10 in 10.0 mi South 6.9 mph 16.1 mph N/A   Partly Cloudy
3:52 PM 84.2 °F 88.4 °F 69.8 °F 62% 30.09 in 10.0 mi SE 11.5 mph 17.3 mph N/A   Partly Cloudy
4:50 PM 82.4 °F 87.2 °F 71.6 °F 70% 30.08 in 10.0 mi SSE 11.5 mph - N/A   Partly Cloudy
5:47 PM 82.4 °F 88.2 °F 73.4 °F 74% 30.05 in 10.0 mi South 8.1 mph - N/A   Scattered Clouds
6:47 PM 82.4 °F 87.2 °F 71.6 °F 70% 30.05 in 10.0 mi South 11.5 mph - N/A   Scattered Clouds
7:47 PM 82.4 °F 88.2 °F 73.4 °F 74% 30.06 in 10.0 mi South 6.9 mph - N/A   Partly Cloudy
8:36 PM 75.2 °F - 69.8 °F 83% 30.08 in 0.5 mi South 11.5 mph 20.7 mph N/A Rain Heavy Rain
8:50 PM 77.0 °F - 73.4 °F 89% 30.08 in 5.0 mi South 5.8 mph - N/A Rain Light Rain
9:15 PM 77.0 °F - 75.2 °F 94% 30.08 in 10.0 mi South 8.1 mph 16.1 mph 0.00 in   Partly Cloudy
9:35 PM 77.0 °F - 75.2 °F 94% 30.08 in 10.0 mi South 6.9 mph - 0.00 in   Partly Cloudy
9:55 PM 77.0 °F - 75.2 °F 94% 30.09 in 10.0 mi South 5.8 mph - 0.00 in   Clear
10:15 PM 77.0 °F - 75.2 °F 94% 30.10 in 10.0 mi South 3.5 mph - 0.00 in   Clear
10:35 PM 77.0 °F - 75.2 °F 94% 30.10 in 10.0 mi South 6.9 mph - 0.00 in   Partly Cloudy
10:55 PM 78.8 °F - 73.4 °F 83% 30.10 in 10.0 mi South 6.9 mph - 0.00 in   Scattered Clouds
11:15 PM 78.8 °F - 75.2 °F 89% 30.10 in 10.0 mi South 6.9 mph - 0.00 in   Scattered Clouds
11:35 PM 78.8 °F - 75.2 °F 89% 30.11 in 10.0 mi South 8.1 mph - 0.00 in   Scattered Clouds
11:55 PM 78.8 °F - 75.2 °F 89% 30.10 in 10.0 mi South 8.1 mph - 0.00 in   Partly Cloudy